Starlink 31771

operational
NORAD ID: 59620 Int'l Des: 2024-080 Owner: SPXS Country: US Constellation: starlink
LEOCIRCULAR

About Starlink 31771

Description loading...

Live Position

Loading 3D Globe...

Upcoming Passes

Altitude History

Altitude vs Time

uPlot chart will show altitude changes over time

Two-Line Element Set

1 59620U 24080V 25304.83336806 .00405859 00000-0 67238-2 0 9996
2 59620 42.9929 39.2567 0020555 15.0050 161.9241 15.49745696 5914
Epoch: Oct 31, 2025 • Age: 21 hours

Current Status

Altitude 429.1 km
Velocity 7.65 km/s
Sub-Earth Point -41.14°S, 35.69°E
Launch Date Apr 28, 2024
Age 1.5 years
Type internet

Technical Details

Classification Payload
Mass 730.00 kg
Dry Mass 700.00 kg
Total Mass 730.00 kg
Length 0.30 m
Diameter 4.10 m
Span 29.00 m
Shape Box + pan
Manufacturer SPXS
Bus Type Starlink V2M
Phase Status In Orbit
Owner/State SPXS/US

Large Constellations

Loading constellations...